Weather History for KSVN - January, 2013

Change the Weather History Date:

Saturday, January 19, 2013

  Actual Average Record
Temperature  
Mean Temperature 51 °F -  
Max Temperature 61 °F 59 °F 75 °F (2001)
Min Temperature 41 °F 37 °F 24 °F (1997)
Degree Days  
Heating Degree Days 14    
Growing Degree Days 1 (Base 50)    
Moisture  
Dew Point 39 °F    
Average Humidity 67    
Maximum Humidity 93    
Minimum Humidity 51    
Precipitation  
Precipitation 0.00 in - - ()
Sea Level Pressure  
Sea Level Pressure 30.34 in    
Wind  
Wind Speed 7 mph (NE)    
Max Wind Speed 10 mph    
Max Gust Speed -    
Visibility 10 miles    
Events      
Averages and records for this station are not official NWS values.
T = Trace of Precipitation, MM = Missing Value Source: NWS Daily Summary

Daily Weather History Graph

Daily Weather History Graph

Search for Another Location

Airport or City:

Trip Planner

Search our weather history database for the weather conditions in past years. The results will help you decide how hot, cold, wet, or windy it might be!

Date:

Astronomy

Jan. 19, 2013 Rise Set
Actual Time 7:24 AM EST 5:46 PM EST
Civil Twilight 6:58 AM EST 6:13 PM EST
Nautical Twilight 6:28 AM EST 6:42 PM EST
Astronomical Twilight 5:59 AM EST 7:12 PM EST
Moon 12:08 PM EST (1/19) 1:02 AM EST (1/19)
Length of Visible Light 11h 14m
Length of Day
10h 22m
First Quarter, 57% of the Moon is Illuminated
Jan 19
First Quarter
Jan 26
Full
Feb 3
Last Quarter
Feb 10
New
Feb 17
First Quarter

Hourly Weather History & Observations

Time (EST) Temp. Windchill Dew Point Humidity Pressure Visibility Wind Dir Wind Speed Gust Speed Precip Events Conditions
12:55 AM 44.2 °F 39.7 °F 28.0 °F 53% 30.43 in 10.0 mi North 8.1 mph - N/A   Clear
1:55 AM 42.8 °F 38.0 °F 27.0 °F 54% 30.43 in 10.0 mi North 8.1 mph - N/A   Clear
2:55 AM 42.3 °F 37.3 °F 26.8 °F 54% 30.42 in 10.0 mi NNE 8.1 mph - N/A   Clear
3:55 AM 42.3 °F 37.3 °F 28.0 °F 57% 30.41 in 10.0 mi NNE 8.1 mph - N/A   Clear
4:55 AM 41.9 °F 36.3 °F 29.1 °F 61% 30.40 in 10.0 mi North 9.2 mph - N/A   Partly Cloudy
5:55 AM 42.1 °F 37.1 °F 30.0 °F 62% 30.40 in 10.0 mi North 8.1 mph - N/A   Mostly Cloudy
6:55 AM 42.4 °F 37.0 °F 31.3 °F 65% 30.41 in 10.0 mi NNE 9.2 mph - N/A   Mostly Cloudy
7:55 AM 43.5 °F 39.4 °F 32.5 °F 65% 30.41 in 10.0 mi NE 6.9 mph - N/A   Mostly Cloudy
8:55 AM 46.4 °F 41.9 °F 33.6 °F 61% 30.42 in 10.0 mi NNE 9.2 mph - N/A   Mostly Cloudy
9:55 AM 48.4 °F - 34.7 °F 59% 30.44 in 10.0 mi NNE 9.2 mph - N/A   Mostly Cloudy
10:55 AM 54.7 °F - 37.0 °F 51% 30.43 in 10.0 mi NE 6.9 mph - N/A   Scattered Clouds
11:55 AM 57.4 °F - 39.7 °F 52% 30.39 in 10.0 mi NNE 10.4 mph - N/A   Clear
12:55 PM 59.4 °F - 41.7 °F 52% 30.33 in 10.0 mi NNE 5.8 mph - N/A   Clear
1:55 PM 61.7 °F - 45.0 °F 54% 30.30 in 10.0 mi Variable 6.9 mph - N/A   Clear
2:55 PM 61.5 °F - 47.5 °F 60% 30.28 in 10.0 mi East 8.1 mph - N/A   Clear
3:55 PM 60.3 °F - 48.4 °F 65% 30.27 in 10.0 mi ESE 4.6 mph - N/A   Clear
4:55 PM 59.4 °F - 48.6 °F 67% 30.27 in 10.0 mi East 5.8 mph - N/A   Clear
5:55 PM 54.7 °F - 47.5 °F 77% 30.26 in 10.0 mi ENE 3.5 mph - N/A   Clear
6:55 PM 52.5 °F - 47.1 °F 82% 30.27 in 10.0 mi East 4.6 mph - N/A   Clear
7:55 PM 52.3 °F - 46.9 °F 82% 30.27 in 10.0 mi Calm Calm - N/A   Clear
8:55 PM 51.4 °F - 47.7 °F 87% 30.27 in 10.0 mi Calm Calm - N/A   Clear
9:55 PM 47.8 °F - 45.5 °F 92% 30.25 in 10.0 mi Calm Calm - N/A   Clear
10:55 PM 47.3 °F - 45.1 °F 92% 30.25 in 10.0 mi WNW 3.5 mph - N/A   Partly Cloudy
11:55 PM 47.1 °F - 45.1 °F 93% 30.23 in 10.0 mi Calm Calm - N/A   Partly Cloudy